Temp
17 17 17 17 16 16 16 15 16 16 17 18 18 17 17 17 17 17 17 17 16 16 15 16 16 15 15 14 14 14 13 13 13 13 13 12 12 12 11 12 11 11 11
17 17 17 17 16 16 16 16 16 16 17 17 18 17 16 16 17 17 16 16 16 16 15 16 15 14 14 14 14 13 13 13 12 12 12 12 11 11 11 11 11 11 11
18 17 17 17 17 17 16 16 16 16 17 18 18 17 17 16 17 16 17 16 15 15 15 15 14 14 14 14 14 13 13 12 12 12 12 11 11 11 11 11 11 10 10
18 17 18 18 17 17 17 16 16 17 17 17 17 17 17 16 16 17 17 16 15 15 15 15 14 14 14 14 13 13 12 12 12 12 11 11 11 10 10 10 10 10 10
18 17 18 18 18 17 17 17 17 17 17 16 17 16 16 16 16 17 16 16 15 15 14 14 14 15 14 14 13 13 12 11 11 11 11 11 10 10 10 10 10 9 9
18 17 17 17 17 18 17 16 17 17 17 16 17 16 15 15 15 16 16 15 15 15 14 14 14 14 14 13 13 12 12 11 11 11 11 10 10 10 10 9 9 9 9
18 17 17 17 17 17 18 17 17 16 16 16 15 13 14 14 14 14 14 15 15 14 14 14 14 14 13 13 12 12 12 11 11 11 10 10 10 9 9 9 9 9 8
18 17 17 17 16 15 15 16 16 15 15 16 15 13 10 12 13 13 14 14 14 14 14 14 14 13 13 13 12 12 11 11 11 11 10 10 9 9 9 9 9 8 8
17 17 17 17 17 15 14 15 15 15 15 14 16 14 10 11 10 11 12 14 14 13 13 14 14 13 13 13 12 12 12 11 11 11 10 10 9 9 9 9 8 8 7
16 16 16 16 17 16 15 14 15 14 15 14 13 16 15 13 10 9 10 11 13 13 13 14 14 13 12 12 12 12 13 12 11 11 10 10 9 9 9 8 8 7 7
15 15 16 16 16 15 15 15 14 13 15 14 13 13 13 13 13 10 9 9 10 12 13 12 12 13 12 12 12 12 13 13 11 11 11 10 9 9 8 8 8 7 7
15 14 15 15 16 15 14 15 15 13 13 14 14 13 14 13 12 11 9 10 10 10 11 12 12 11 12 12 12 13 13 12 12 11 11 11 10 9 8 8 7 7 6
13 14 14 15 15 15 15 15 14 13 13 13 13 13 13 14 14 14 13 9 9 10 10 11 11 11 11 11 11 12 12 12 11 10 11 11 10 9 8 7 7 7 6
12 13 14 14 15 15 15 15 14 13 13 12 13 13 13 13 14 14 14 11 9 9 9 10 11 11 11 11 11 11 11 12 11 11 10 10 10 9 8 7 6 6 6
11 12 12 13 13 14 15 14 12 12 12 12 12 12 12 13 13 14 14 14 13 8 9 9 10 11 11 11 11 10 10 10 11 11 10 10 10 9 8 6 6 5 5
10 10 11 11 12 13 14 14 12 12 12 13 12 12 12 12 12 12 13 13 14 13 10 10 10 12 12 11 11 10 10 10 10 10 10 9 9 8 8 7 6 5 4
8 9 10 10 11 11 12 12 12 12 13 12 11 11 11 12 11 12 12 12 12 12 12 11 11 11 11 11 11 10 9 9 10 9 9 9 8 8 7 7 6 6 4
6 6 8 9 10 10 11 11 11 11 12 11 11 11 12 11 11 11 11 12 11 12 12 12 10 10 10 11 11 9 9 8 8 9 8 8 8 8 7 7 6 6 4
5 5 6 7 8 9 10 10 11 11 11 11 11 11 11 11 11 11 11 10 11 11 11 10 9 9 8 9 9 7 8 8 7 8 8 8 7 7 7 6 6 5 4
4 4 5 5 6 8 9 9 10 10 10 10 11 11 11 11 10 10 10 10 10 10 10 10 8 8 8 7 7 5 5 6 6 6 6 6 6 6 6 5 6 4 4
3 4 4 4 5 6 7 8 9 10 10 10 10 10 10 10 10 10 10 10 10 10 10 9 7 7 6 5 5 5 5 4 5 5 5 5 5 5 4 4 4 3 4
2 2 3 3 4 4 5 6 7 8 9 9 9 9 10 10 9 9 10 10 10 9 9 10 7 6 7 6 5 4 4 2 2 4 5 5 5 4 4 4 3 3 3
1 2 2 2 2 3 3 4 5 6 7 8 9 9 9 9 9 9 9 9 9 9 9 10 9 7 7 6 6 4 3 3 4 5 3 3 3 3 4 4 3 3 3
1 1 1 1 1 1 1 3 3 5 6 6 7 8 8 8 8 8 8 8 8 9 9 9 8 8 8 7 7 6 5 3 2 3 3 1 2 2 2 3 3 3 2
0 0 0 -0 -1 -0 1 2 3 4 4 5 6 7 7 7 8 8 8 8 8 8 8 8 8 8 7 6 6 4 2 1 0 1 1 2 1 1 1 2 2 1 1
-0 -0 -1 -1 -1 -0 1 2 2 3 4 4 5 6 7 7 7 7 7 7 7 7 8 8 8 7 6 5 4 4 3 2 2 -0 0 0 -0 0 0 1 1 1 -0
Height
791 795 799 802 805 808 812 815 819 822 826 829 833 835 836 837 839 842 845 848 850 852 853 854 857 858 860 861 864 865 867 868 869 870 871 872 873 874 874 875 874 874 873
786 791 795 799 803 805 809 813 817 821 825 828 832 834 836 838 839 842 844 847 849 851 853 854 857 858 859 862 863 865 867 869 870 870 872 873 873 873 874 874 875 874 874
781 785 790 794 798 802 806 812 816 820 823 827 830 833 835 837 839 842 844 847 848 850 852 854 856 858 860 862 862 864 866 869 871 872 873 873 874 874 874 874 874 875 875
777 782 786 789 794 799 804 808 813 816 820 825 828 832 834 836 838 841 844 847 849 851 852 853 854 857 860 862 863 864 866 868 870 871 873 874 874 875 874 874 875 875 875
772 777 782 786 790 795 799 804 809 813 817 822 826 831 833 835 837 840 843 845 848 850 851 853 855 856 858 860 862 864 866 868 869 871 872 873 874 875 875 875 875 875 875
767 772 779 783 788 791 795 800 804 810 814 820 825 829 831 834 836 839 841 843 846 848 850 852 854 855 857 859 860 862 864 867 869 870 872 873 873 874 874 874 875 875 875
761 768 773 779 784 787 791 794 799 804 811 816 822 829 832 834 836 838 840 843 845 847 849 850 852 854 856 858 860 861 862 865 867 869 871 872 872 873 873 873 874 874 874
755 762 766 772 779 785 790 789 793 800 806 811 816 823 832 837 836 837 839 841 844 845 847 849 850 852 854 856 858 860 861 863 866 868 869 870 871 872 873 873 873 874 873
750 757 762 766 772 779 787 785 787 793 799 808 809 815 829 830 833 836 837 837 841 843 844 846 848 850 852 854 856 858 860 862 864 865 867 868 869 870 871 872 872 872 872
746 752 758 762 766 771 779 784 787 789 793 802 808 811 813 814 826 835 834 834 836 838 841 843 845 847 849 851 854 855 857 859 862 864 865 866 867 868 869 869 870 870 870
745 749 754 758 762 766 771 778 784 788 790 797 800 805 810 812 815 821 828 831 833 833 837 839 841 843 846 848 850 852 854 856 859 862 863 864 865 866 867 867 867 868 868
743 746 750 755 759 763 767 771 777 783 788 790 796 800 803 806 809 813 820 825 827 829 831 835 838 840 841 843 846 848 850 852 854 857 860 861 862 862 863 864 865 865 866
740 743 748 752 755 760 764 768 773 779 782 786 789 794 799 801 805 808 811 818 822 825 828 830 833 835 838 840 841 843 845 847 850 853 855 857 859 860 860 861 861 862 863
740 741 745 750 753 757 761 765 770 774 777 782 785 789 793 797 801 804 806 811 819 821 822 822 825 829 831 832 835 839 841 842 845 848 850 852 854 855 856 857 858 859 859
741 740 743 748 751 755 758 762 767 771 774 777 781 785 789 793 797 800 802 803 807 817 817 817 818 819 822 825 828 832 835 838 839 842 846 847 849 851 851 853 854 855 855
739 740 742 746 749 752 755 758 762 767 770 773 778 781 785 789 793 795 799 800 802 803 808 810 809 812 815 818 820 824 826 830 833 836 840 842 845 846 846 848 849 851 851
738 740 741 744 748 750 753 756 759 762 766 769 773 777 780 783 786 789 792 795 798 800 800 802 804 806 809 811 814 816 819 821 824 828 832 835 838 843 843 844 844 845 847
738 740 741 743 745 748 750 753 755 758 761 765 768 772 775 778 781 784 786 787 790 792 794 795 798 800 800 804 805 809 811 815 818 821 824 827 832 835 837 839 840 840 842
740 740 741 742 742 744 747 749 752 755 757 760 764 766 769 772 773 777 778 780 783 786 787 789 790 793 795 798 800 803 806 809 812 815 818 821 824 827 830 831 834 835 836
741 741 740 739 740 741 743 745 748 751 753 755 758 761 764 766 769 771 773 774 776 777 781 783 784 785 789 789 794 799 803 805 804 810 814 815 817 820 822 824 828 829 831
743 741 740 739 739 739 739 741 742 744 747 750 753 755 757 759 762 764 766 767 768 769 772 775 776 780 780 785 786 786 793 798 798 803 808 810 813 814 817 819 821 823 824
743 742 740 738 737 738 738 739 740 740 742 745 746 748 751 752 754 756 758 759 761 761 763 763 768 767 772 773 777 781 786 794 797 794 797 803 804 806 810 812 814 818 820
743 743 740 739 738 736 736 735 736 736 737 739 740 742 743 744 746 748 749 750 751 752 751 754 754 756 761 763 768 771 774 779 779 781 788 795 799 801 804 806 809 812 815
744 741 738 737 736 734 733 733 734 732 733 733 734 735 736 737 738 740 740 740 740 741 742 744 742 744 748 751 754 757 759 769 777 779 785 787 790 793 796 800 803 807 810
742 739 738 737 733 733 730 730 730 728 727 727 727 728 729 729 731 732 733 732 732 732 734 735 736 738 740 743 747 754 759 766 771 772 777 778 783 787 791 795 798 802 803
739 737 735 733 732 728 727 727 725 723 722 721 720 720 721 723 724 725 726 726 725 725 726 727 728 730 733 736 739 744 749 755 759 767 768 775 779 785 791 788 791 795 798
Wind_Speed
30 28 28 26 23 21 21 24 24 23 19 18 15 13 5 13 20 14 11 10 11 7 12 11 10 9 9 9 10 12 16 15 13 11 10 10 12 10 11 11 11 12 12
33 32 31 27 25 22 23 26 26 26 18 18 17 13 10 18 18 15 13 13 13 13 10 11 9 11 13 13 14 17 14 12 11 10 11 11 11 11 11 11 11 11 10
35 34 33 28 27 24 25 27 26 25 24 19 19 14 13 8 12 16 8 11 13 13 9 14 16 15 12 14 16 18 13 11 10 10 10 9 10 11 11 11 10 10 10
38 36 33 30 28 29 29 30 28 26 26 22 18 16 14 9 11 12 10 11 11 10 12 14 18 16 13 15 14 14 11 9 10 11 10 9 9 9 9 10 9 9 9
38 38 33 33 31 32 34 33 31 29 28 23 20 16 15 12 15 14 13 11 14 13 13 15 16 13 13 17 19 13 11 10 11 12 10 9 9 8 9 8 9 8 8
35 38 37 31 32 34 34 33 35 30 26 26 23 15 12 16 15 17 16 15 15 15 16 15 17 15 15 18 18 15 11 12 12 12 10 9 9 8 8 8 7 7 7
31 38 40 32 29 29 36 38 36 33 29 26 25 22 17 17 16 14 14 13 14 15 16 16 19 18 18 19 16 15 10 14 13 12 11 10 9 8 8 7 7 6 6
32 37 41 38 33 24 26 37 34 28 23 31 18 13 3 5 9 13 12 12 15 17 17 18 19 18 18 20 16 13 14 15 14 13 12 11 9 8 8 7 6 6 5
31 33 35 34 40 34 27 33 35 29 26 28 33 12 3 4 6 10 15 17 17 19 19 20 20 20 23 21 17 14 14 15 15 14 13 12 11 10 8 7 6 5 5
31 32 33 34 34 38 37 31 33 34 29 27 27 25 11 15 3 2 10 17 21 22 23 23 23 24 23 21 19 16 14 14 16 15 14 13 11 10 9 8 7 6 5
23 25 30 32 31 33 36 39 34 29 34 31 27 24 17 16 14 4 3 8 19 25 26 26 27 27 25 24 22 21 17 17 18 17 17 15 13 12 10 9 8 7 6
25 22 25 27 29 31 33 35 39 36 33 31 35 26 24 14 12 6 3 9 16 18 28 29 29 29 29 28 27 26 24 22 20 20 19 18 17 15 13 12 10 9 8
21 21 20 22 26 27 27 25 30 35 37 30 35 30 26 24 17 19 13 5 4 12 21 29 31 32 31 32 32 30 28 26 24 23 22 22 21 19 17 14 12 11 9
17 20 20 20 22 23 23 24 27 32 34 33 33 29 33 30 29 24 23 12 2 5 12 15 35 36 36 38 37 33 31 29 26 27 25 24 23 23 21 16 13 12 11
11 13 15 17 20 21 23 26 26 29 31 34 31 31 29 31 32 28 26 28 13 5 9 18 18 37 41 41 41 37 35 32 30 30 30 27 25 26 26 20 15 14 13
9 9 8 12 17 19 21 24 26 27 29 28 29 30 31 28 28 30 31 25 30 20 5 27 32 25 32 41 42 41 40 37 34 33 33 31 29 29 29 27 20 16 15
6 5 7 10 13 15 17 20 22 21 25 27 27 28 29 29 29 30 34 33 28 25 16 16 29 32 30 32 37 40 41 38 37 36 35 35 32 30 29 28 23 19 18
9 6 1 6 9 17 17 19 20 23 27 26 26 27 27 28 32 29 32 32 31 31 27 22 26 32 34 36 35 37 39 37 38 38 37 36 34 33 31 28 26 21 20
13 9 5 2 4 7 18 21 21 22 22 23 28 29 27 24 27 27 29 29 32 31 30 22 21 26 32 34 33 33 35 35 37 37 37 37 36 34 32 29 26 24 22
14 12 9 7 4 4 7 13 22 23 23 25 27 26 27 26 27 28 29 31 30 29 27 26 22 22 24 26 30 24 26 32 36 36 36 38 36 34 33 29 27 25 23
16 13 11 9 7 5 3 7 10 22 24 26 25 25 27 28 31 31 29 26 27 29 28 26 19 19 19 15 27 32 27 29 32 34 35 34 34 34 32 29 28 26 24
17 15 13 13 10 7 7 7 9 9 19 25 27 29 29 31 31 35 35 34 31 31 28 27 24 21 27 31 30 26 24 15 9 35 36 37 38 40 37 34 29 27 25
18 16 16 16 12 9 10 8 9 12 15 17 25 27 28 30 31 33 34 38 41 44 39 33 30 32 31 34 36 31 31 30 21 19 34 25 34 36 39 34 31 29 25
18 16 20 17 17 13 11 12 12 11 14 19 23 26 28 28 28 30 32 33 34 38 40 46 39 39 43 42 45 43 42 31 17 16 26 15 26 33 36 35 30 27 25
18 16 19 16 16 17 13 14 12 11 14 19 20 22 24 26 28 27 30 29 29 29 32 35 39 43 35 36 38 31 25 25 11 14 27 16 16 23 27 31 27 24 22
18 19 16 14 16 17 15 14 13 14 15 16 17 19 20 23 23 24 26 27 24 26 29 31 32 33 32 34 34 39 35 28 15 10 28 22 16 18 7 23 25 23 20
Wind_Direction
192 192 194 191 190 186 186 182 176 173 176 177 189 204 181 196 184 167 176 186 188 203 176 181 206 209 187 169 178 153 138 130 125 117 118 112 113 108 99 94 87 81 78
195 196 192 192 192 188 186 188 181 179 183 184 184 191 135 162 171 175 160 174 183 187 187 197 186 170 158 158 157 146 142 136 128 124 119 118 116 115 110 101 93 85 80
198 193 193 192 192 186 182 179 184 182 178 183 184 201 199 135 180 168 184 177 174 176 185 174 169 161 164 164 150 146 152 140 134 131 135 129 120 120 111 105 98 91 85
204 191 195 194 189 185 182 183 187 188 188 190 184 197 203 193 177 192 188 180 180 195 187 177 169 160 165 165 159 151 153 165 146 142 140 132 128 121 116 109 102 97 92
208 199 194 195 190 187 185 191 190 188 182 182 173 190 210 195 178 192 183 189 194 195 191 194 183 180 192 187 170 171 172 159 155 154 154 145 137 131 123 115 110 106 99
210 200 197 192 192 191 189 183 188 186 186 181 177 175 183 181 177 183 182 181 189 196 197 188 185 187 189 191 165 166 161 162 162 162 162 157 150 144 137 128 123 117 106
205 204 197 197 195 195 192 187 186 178 176 179 156 119 120 151 162 167 177 184 202 197 201 204 200 200 193 182 169 168 170 163 168 170 169 168 162 158 152 146 138 131 118
204 204 201 204 204 197 195 187 179 167 171 177 161 146 130 113 152 180 193 208 219 206 208 209 207 208 197 183 188 188 169 169 175 180 179 177 174 171 167 162 155 144 133
204 208 207 209 209 207 194 184 180 175 173 182 186 159 139 198 137 181 195 202 214 210 211 210 214 211 197 196 197 196 191 184 184 187 187 186 184 181 177 174 172 166 157
203 208 208 208 205 205 204 198 195 190 176 185 182 191 180 150 164 169 198 204 209 215 216 214 214 204 206 207 209 209 209 207 193 196 196 195 193 192 189 184 183 182 176
203 205 211 212 209 203 204 204 200 191 188 184 183 191 187 175 163 143 169 195 212 212 220 218 213 214 214 216 217 215 222 225 207 204 205 203 203 202 200 197 193 193 191
198 201 207 211 213 208 202 201 206 199 197 191 195 199 195 183 184 159 128 189 205 218 216 217 218 216 219 222 225 229 231 228 220 209 211 212 210 207 204 203 202 203 202
195 192 196 204 205 204 203 203 211 207 200 196 202 204 207 209 219 208 189 153 177 203 217 223 221 221 218 223 228 228 228 234 226 215 214 216 215 214 211 207 206 206 208
196 194 201 213 207 206 202 203 215 217 213 202 207 205 212 216 216 212 201 165 148 184 200 212 222 222 224 229 230 232 232 232 228 226 217 218 217 216 211 208 208 208 209
179 196 200 207 217 216 211 208 218 219 217 215 214 215 219 222 226 219 215 214 194 172 211 216 213 225 227 230 234 232 233 232 229 234 223 216 218 217 216 213 211 211 213
148 164 191 205 216 219 215 216 208 217 215 218 220 221 226 226 228 229 226 225 221 217 215 213 221 227 231 232 234 233 236 235 232 233 228 220 219 220 223 229 229 224 218
88 148 178 200 220 221 225 226 222 221 222 220 220 224 224 232 226 233 238 234 234 233 238 228 230 228 230 232 235 233 235 234 231 229 227 226 224 226 228 232 231 229 220
60 60 114 200 210 227 230 229 227 228 232 228 224 219 232 226 227 223 227 229 230 231 232 236 222 222 224 233 232 232 231 232 232 228 224 225 228 228 230 233 235 231 223
38 36 34 29 215 209 232 226 224 226 232 230 229 225 225 228 225 223 222 226 229 231 230 235 221 221 222 227 224 231 232 230 233 230 226 227 228 229 231 230 230 232 230
27 18 17 17 351 250 243 234 236 233 233 237 237 240 244 245 240 237 233 231 228 228 227 226 221 209 211 217 219 209 218 229 228 228 227 225 226 228 229 227 234 230 231
6 9 5 7 2 343 273 262 260 235 237 238 238 245 251 255 255 247 241 237 225 221 222 224 215 205 197 188 196 207 213 214 219 226 224 221 225 227 225 227 225 225 231
356 357 359 356 342 341 315 261 263 252 249 250 243 245 253 256 258 254 251 243 241 227 228 223 217 211 214 207 203 198 191 189 218 222 221 224 224 226 227 225 227 229 233
345 340 344 340 330 320 334 313 287 267 255 253 248 250 249 248 251 254 256 256 253 249 235 229 226 219 219 208 207 197 198 202 209 207 204 216 223 225 229 227 228 233 235
332 330 336 333 328 322 324 320 302 278 267 260 252 252 251 251 252 253 253 252 253 255 255 248 233 227 223 225 217 218 208 203 201 200 196 203 223 223 231 230 229 232 235
324 325 328 318 323 315 327 320 308 293 278 269 261 257 256 258 258 258 253 249 255 256 259 258 254 239 232 219 220 198 182 177 189 196 202 197 219 215 229 227 225 227 223
313 314 317 313 311 313 325 321 313 299 278 270 278 268 261 257 260 260 254 252 252 252 254 257 249 236 223 214 210 211 197 189 182 187 205 194 192 188 200 221 220 218 217